| time (UTC) | temp F | wind direction | speed MPH | gust MPH | rain 1hr in | rain 24hr in | rain mn in | humidity % | barometer mb |
| 20260506175544 | 44 | 194 | 1.0 | 0.0 | 0.00 | 0.00 | 0.00 | 53 | 1009.2 |
| 20260506175032 | 44 | 190 | 1.0 | 0.0 | 0.00 | 0.00 | 0.00 | 53 | 1009.2 |
| 20260506174539 | 45 | 190 | 1.0 | 0.0 | 0.00 | 0.00 | 0.00 | 53 | 1009.2 |
| 20260506174028 | 45 | 262 | 2.0 | 0.0 | 0.00 | 0.00 | 0.00 | 52 | 1008.9 |
| 20260506173547 | 45 | 231 | 2.0 | 0.0 | 0.00 | 0.00 | 0.00 | 50 | 1008.9 |
| 20260506173056 | 46 | 227 | 2.0 | 0.0 | 0.00 | 0.00 | 0.00 | 51 | 1008.9 |
| 20260506172532 | 46 | 240 | 2.0 | 0.0 | 0.00 | 0.00 | 0.00 | 49 | 1008.7 |
| 20260506172020 | 46 | 197 | 1.0 | 0.0 | 0.00 | 0.00 | 0.00 | 49 | 1008.7 |
| 20260506171524 | 46 | 207 | 2.0 | 0.0 | 0.00 | 0.00 | 0.00 | 50 | 1008.6 |
| 20260506171029 | 47 | 285 | 2.0 | 0.0 | 0.00 | 0.00 | 0.00 | 48 | 1008.6 |
| 20260506170520 | 47 | 235 | 1.0 | 0.0 | 0.00 | 0.00 | 0.00 | 48 | 1008.6 |
| 20260506170038 | 47 | 194 | 1.0 | 0.0 | 0.00 | 0.00 | 0.00 | 48 | 1008.6 |
| 20260506165523 | 47 | 183 | 1.0 | 0.0 | 0.00 | 0.00 | 0.00 | 46 | 1008.7 |
| 20260506165051 | 48 | 183 | 1.0 | 0.0 | 0.00 | 0.00 | 0.00 | 47 | 1008.7 |
| 20260506164529 | 48 | 227 | 1.0 | 0.0 | 0.00 | 0.00 | 0.00 | 46 | 1008.5 |
| 20260506164017 | 48 | 227 | 2.0 | 0.0 | 0.00 | 0.00 | 0.00 | 46 | 1008.5 |
| 20260506163601 | 49 | 179 | 2.0 | 0.0 | 0.00 | 0.00 | 0.00 | 45 | 1008.5 |
| 20260506163030 | 49 | 228 | 3.0 | 0.0 | 0.00 | 0.00 | 0.00 | 44 | 1008.4 |
| 20260506162521 | 49 | 170 | 3.0 | 0.0 | 0.00 | 0.00 | 0.00 | 44 | 1008.4 |
| 20260506162042 | 49 | 272 | 3.0 | 0.0 | 0.00 | 0.00 | 0.00 | 43 | 1008.4 |
| 20260506161530 | 49 | 248 | 1.0 | 0.0 | 0.00 | 0.00 | 0.00 | 46 | 1008.4 |
| 20260506161040 | 49 | 203 | 1.0 | 0.0 | 0.00 | 0.00 | 0.00 | 45 | 1008.4 |
| 20260506160559 | 49 | 230 | 1.0 | 0.0 | 0.00 | 0.00 | 0.00 | 45 | 1008.4 |
| 20260506160028 | 49 | 230 | 1.0 | 0.0 | 0.00 | 0.00 | 0.00 | 45 | 1008.3 |
| 20260506155544 | 50 | 268 | 2.0 | 0.0 | 0.00 | 0.00 | 0.00 | 44 | 1008.3 |
| 20260506155030 | 50 | 190 | 2.0 | 0.0 | 0.00 | 0.00 | 0.00 | 44 | 1008.3 |
| 20260506154536 | 50 | 202 | 2.0 | 0.0 | 0.00 | 0.00 | 0.00 | 45 | 1008.3 |
| 20260506154024 | 49 | 223 | 2.0 | 0.0 | 0.00 | 0.00 | 0.00 | 47 | 1008.3 |
| 20260506153524 | 49 | 295 | 3.0 | 0.0 | 0.00 | 0.00 | 0.00 | 46 | 1008.3 |
| 20260506153039 | 48 | 214 | 4.0 | 0.0 | 0.00 | 0.00 | 0.00 | 47 | 1008.3 |
| 20260506152543 | 48 | 199 | 3.0 | 0.0 | 0.00 | 0.00 | 0.00 | 47 | 1008.2 |
| 20260506152036 | 48 | 227 | 3.0 | 0.0 | 0.00 | 0.00 | 0.00 | 49 | 1008.2 |
| 20260506151520 | 48 | 183 | 1.0 | 0.0 | 0.00 | 0.00 | 0.00 | 48 | 1008.3 |
| 20260506151058 | 48 | 190 | 2.0 | 0.0 | 0.00 | 0.00 | 0.00 | 49 | 1008.3 |
| 20260506150525 | 48 | 189 | 4.0 | 0.0 | 0.00 | 0.00 | 0.00 | 47 | 1008.3 |
| 20260506145529 | 48 | 176 | 2.0 | 0.0 | 0.00 | 0.00 | 0.00 | 49 | 1008.2 |
| 20260506145032 | 47 | 166 | 2.0 | 0.0 | 0.00 | 0.00 | 0.00 | 49 | 1008.2 |
| 20260506144531 | 47 | 242 | 1.0 | 0.0 | 0.00 | 0.00 | 0.00 | 49 | 1008.2 |
| 20260506144021 | 47 | 292 | 2.0 | 0.0 | 0.00 | 0.00 | 0.00 | 50 | 1008.2 |
| 20260506143530 | 47 | 214 | 4.0 | 0.0 | 0.00 | 0.00 | 0.00 | 50 | 1008.2 |
| 20260506143048 | 47 | 275 | 5.0 | 0.0 | 0.00 | 0.00 | 0.00 | 47 | 1008.2 |
| 20260506142534 | 48 | 196 | 4.0 | 0.0 | 0.00 | 0.00 | 0.00 | 49 | 1008.2 |
| 20260506142036 | 48 | 233 | 3.0 | 0.0 | 0.00 | 0.00 | 0.00 | 46 | 1008.2 |
| 20260506141524 | 48 | 211 | 3.0 | 0.0 | 0.00 | 0.00 | 0.00 | 47 | 1008.2 |
| 20260506141028 | 48 | 231 | 3.0 | 0.0 | 0.00 | 0.00 | 0.00 | 46 | 1008.2 |
| 20260506140528 | 48 | 248 | 3.0 | 0.0 | 0.00 | 0.00 | 0.00 | 47 | 1008.2 |
| 20260506140035 | 48 | 168 | 3.0 | 0.0 | 0.00 | 0.00 | 0.00 | 49 | 1008.2 |
| 20260506135521 | 48 | 186 | 2.0 | 0.0 | 0.00 | 0.00 | 0.00 | 50 | 1008.2 |
| 20260506135041 | 48 | 209 | 2.0 | 0.0 | 0.00 | 0.00 | 0.00 | 48 | 1008.2 |
| 20260506134552 | 48 | 209 | 3.0 | 0.0 | 0.00 | 0.00 | 0.00 | 50 | 1008.2 |
| 20260506134027 | 47 | 218 | 3.0 | 0.0 | 0.00 | 0.00 | 0.00 | 48 | 1008.2 |
| 20260506133526 | 47 | 245 | 4.0 | 0.0 | 0.00 | 0.00 | 0.00 | 49 | 1008.2 |
| 20260506133027 | 47 | 214 | 5.0 | 0.0 | 0.00 | 0.00 | 0.00 | 49 | 1008.1 |
| 20260506132534 | 47 | 220 | 5.0 | 0.0 | 0.00 | 0.00 | 0.00 | 49 | 1008.1 |
| 20260506132045 | 47 | 244 | 5.0 | 0.0 | 0.00 | 0.00 | 0.00 | 49 | 1008.1 |
| 20260506131602 | 47 | 275 | 5.0 | 0.0 | 0.00 | 0.00 | 0.00 | 48 | 1008.1 |
| 20260506131029 | 47 | 240 | 5.0 | 0.0 | 0.00 | 0.00 | 0.00 | 48 | 1008.0 |
| 20260506130539 | 47 | 183 | 5.0 | 0.0 | 0.00 | 0.00 | 0.00 | 50 | 1008.0 |
| 20260506130023 | 48 | 224 | 5.0 | 0.0 | 0.00 | 0.00 | 0.00 | 51 | 1007.8 |
| 20260506125533 | 48 | 217 | 4.0 | 0.0 | 0.00 | 0.00 | 0.00 | 51 | 1007.8 |
| 20260506125021 | 48 | 206 | 4.0 | 0.0 | 0.00 | 0.00 | 0.00 | 50 | 1007.8 |
| 20260506124540 | 48 | 289 | 4.0 | 0.0 | 0.00 | 0.00 | 0.00 | 48 | 1007.9 |
| 20260506124026 | 48 | 281 | 4.0 | 0.0 | 0.00 | 0.00 | 0.00 | 50 | 1007.8 |
| 20260506123535 | 47 | 248 | 5.0 | 0.0 | 0.00 | 0.00 | 0.00 | 49 | 1007.8 |
| 20260506123025 | 47 | 211 | 5.0 | 0.0 | 0.00 | 0.00 | 0.00 | 49 | 1007.8 |
| 20260506122540 | 47 | 211 | 4.0 | 0.0 | 0.00 | 0.00 | 0.00 | 50 | 1007.8 |
| 20260506122032 | 48 | 233 | 4.0 | 0.0 | 0.00 | 0.00 | 0.00 | 51 | 1007.8 |
| 20260506121521 | 48 | 214 | 4.0 | 0.0 | 0.00 | 0.00 | 0.00 | 47 | 1007.6 |
| 20260506121032 | 48 | 194 | 5.0 | 0.0 | 0.00 | 0.00 | 0.00 | 48 | 1007.6 |
| 20260506120551 | 49 | 218 | 5.0 | 0.0 | 0.00 | 0.00 | 0.00 | 48 | 1007.6 |
| 20260506120037 | 49 | 245 | 4.0 | 0.0 | 0.00 | 0.00 | 0.00 | 46 | 1007.6 |
| 20260506115523 | 49 | 235 | 4.0 | 0.0 | 0.00 | 0.00 | 0.00 | 46 | 1007.4 |
| 20260506115038 | 50 | 255 | 4.0 | 0.0 | 0.00 | 0.00 | 0.00 | 44 | 1007.4 |
| 20260506114525 | 51 | 200 | 5.0 | 0.0 | 0.00 | 0.00 | 0.00 | 43 | 1007.3 |
| 20260506114104 | 51 | 224 | 4.0 | 0.0 | 0.00 | 0.00 | 0.00 | 40 | 1007.3 |
| 20260506113531 | 52 | 172 | 6.0 | 0.0 | 0.00 | 0.00 | 0.00 | 41 | 1007.3 |
| 20260506113035 | 52 | 240 | 6.0 | 0.0 | 0.00 | 0.00 | 0.00 | 38 | 1007.3 |
| 20260506112552 | 52 | 209 | 5.0 | 0.0 | 0.00 | 0.00 | 0.00 | 38 | 1007.1 |
| 20260506112034 | 52 | 207 | 6.0 | 0.0 | 0.00 | 0.00 | 0.00 | 40 | 1007.1 |
| 20260506111540 | 52 | 194 | 7.0 | 0.0 | 0.00 | 0.00 | 0.00 | 36 | 1007.1 |
| 20260506111028 | 52 | 187 | 7.0 | 0.0 | 0.00 | 0.00 | 0.00 | 39 | 1007.0 |
| 20260506110546 | 52 | 163 | 7.0 | 0.0 | 0.00 | 0.00 | 0.00 | 34 | 1007.0 |
| 20260506110029 | 52 | 196 | 7.0 | 0.0 | 0.00 | 0.00 | 0.00 | 38 | 1006.8 |
| 20260506105520 | 53 | 218 | 5.0 | 0.0 | 0.00 | 0.00 | 0.00 | 38 | 1006.8 |
| 20260506105057 | 53 | 183 | 5.0 | 0.0 | 0.00 | 0.00 | 0.00 | 44 | 1006.8 |
| 20260506104551 | 53 | 187 | 4.0 | 0.0 | 0.00 | 0.00 | 0.00 | 38 | 1006.6 |
| 20260506104035 | 53 | 255 | 5.0 | 0.0 | 0.00 | 0.00 | 0.00 | 39 | 1006.6 |
| 20260506103522 | 52 | 175 | 5.0 | 0.0 | 0.00 | 0.00 | 0.00 | 40 | 1006.6 |
| 20260506103023 | 52 | 185 | 4.0 | 0.0 | 0.00 | 0.00 | 0.00 | 41 | 1006.6 |
| 20260506102538 | 52 | 211 | 5.0 | 0.0 | 0.00 | 0.00 | 0.00 | 42 | 1006.6 |
| 20260506102025 | 51 | 241 | 5.0 | 0.0 | 0.00 | 0.00 | 0.00 | 39 | 1006.6 |
| 20260506101535 | 52 | 203 | 5.0 | 0.0 | 0.00 | 0.00 | 0.00 | 37 | 1006.6 |
| 20260506101052 | 52 | 238 | 6.0 | 0.0 | 0.00 | 0.00 | 0.00 | 43 | 1006.5 |
| 20260506100517 | 51 | 224 | 6.0 | 0.0 | 0.00 | 0.00 | 0.00 | 42 | 1006.5 |
| 20260506100031 | 51 | 216 | 6.0 | 0.0 | 0.00 | 0.00 | 0.00 | 43 | 1006.2 |
| 20260506095536 | 51 | 172 | 5.0 | 0.0 | 0.00 | 0.00 | 0.00 | 44 | 1006.2 |
| 20260506095022 | 51 | 209 | 5.0 | 0.0 | 0.00 | 0.00 | 0.00 | 41 | 1006.2 |
| 20260506094529 | 50 | 183 | 4.0 | 0.0 | 0.00 | 0.00 | 0.00 | 45 | 1006.1 |
| 20260506094045 | 51 | 169 | 5.0 | 0.0 | 0.00 | 0.00 | 0.00 | 41 | 1006.1 |
| 20260506093531 | 51 | 189 | 6.0 | 0.0 | 0.00 | 0.00 | 0.00 | 43 | 1006.1 |
| 20260506093030 | 51 | 189 | 5.0 | 0.0 | 0.00 | 0.00 | 0.00 | 42 | 1006.1 |
| 20260506092536 | 51 | 202 | 5.0 | 0.0 | 0.00 | 0.00 | 0.00 | 43 | 1006.1 |
| 20260506092026 | 51 | 234 | 5.0 | 0.0 | 0.00 | 0.00 | 0.00 | 45 | 1006.1 |
| 20260506091526 | 50 | 170 | 4.0 | 0.0 | 0.00 | 0.00 | 0.00 | 43 | 1005.9 |
| 20260506091042 | 50 | 211 | 4.0 | 0.0 | 0.00 | 0.00 | 0.00 | 43 | 1005.9 |
| 20260506090527 | 49 | 262 | 5.0 | 0.0 | 0.00 | 0.00 | 0.00 | 45 | 1005.9 |
| 20260506090035 | 49 | 231 | 5.0 | 0.0 | 0.00 | 0.00 | 0.00 | 43 | 1005.9 |
| 20260506085553 | 49 | 262 | 5.0 | 0.0 | 0.00 | 0.00 | 0.00 | 45 | 1005.9 |
| 20260506085038 | 49 | 234 | 5.0 | 0.0 | 0.00 | 0.00 | 0.00 | 42 | 1005.9 |
| 20260506084557 | 49 | 199 | 4.0 | 0.0 | 0.00 | 0.00 | 0.00 | 44 | 1005.9 |
| 20260506084020 | 49 | 264 | 4.0 | 0.0 | 0.00 | 0.00 | 0.00 | 46 | 1005.7 |
| 20260506083526 | 49 | 254 | 5.0 | 0.0 | 0.00 | 0.00 | 0.00 | 43 | 1005.7 |
| 20260506083038 | 49 | 180 | 5.0 | 0.0 | 0.00 | 0.00 | 0.00 | 43 | 1005.7 |
| 20260506082526 | 49 | 257 | 4.0 | 0.0 | 0.00 | 0.00 | 0.00 | 44 | 1005.7 |
| 20260506082029 | 49 | 190 | 4.0 | 0.0 | 0.00 | 0.00 | 0.00 | 49 | 1005.7 |
| 20260506081543 | 48 | 227 | 4.0 | 0.0 | 0.00 | 0.00 | 0.00 | 44 | 1005.7 |
| 20260506081048 | 48 | 213 | 4.0 | 0.0 | 0.00 | 0.00 | 0.00 | 45 | 1005.6 |
| 20260506080607 | 48 | 233 | 5.0 | 0.0 | 0.00 | 0.00 | 0.00 | 47 | 1005.6 |
| 20260506073528 | 47 | 258 | 5.0 | 0.0 | 0.00 | 0.00 | 0.00 | 50 | 1005.4 |
| 20260506073029 | 47 | 259 | 5.0 | 0.0 | 0.00 | 0.00 | 0.00 | 48 | 1005.1 |
| 20260506072526 | 47 | 244 | 3.0 | 0.0 | 0.00 | 0.00 | 0.00 | 52 | 1005.1 |
| 20260506072036 | 47 | 238 | 3.0 | 0.0 | 0.00 | 0.00 | 0.00 | 50 | 1005.1 |
| 20260506071541 | 47 | 228 | 4.0 | 0.0 | 0.00 | 0.00 | 0.00 | 48 | 1005.1 |
| 20260506071032 | 47 | 163 | 4.0 | 0.0 | 0.00 | 0.00 | 0.00 | 48 | 1005.0 |
| 20260506070520 | 47 | 175 | 5.0 | 0.0 | 0.00 | 0.00 | 0.00 | 52 | 1005.0 |
| 20260506062033 | 45 | 206 | 4.0 | 0.0 | 0.00 | 0.00 | 0.00 | 58 | 1004.6 |
| 20260506061523 | 45 | 182 | 3.0 | 0.0 | 0.00 | 0.00 | 0.00 | 59 | 1004.5 |
| 20260506061030 | 44 | 223 | 4.0 | 0.0 | 0.00 | 0.00 | 0.00 | 59 | 1004.5 |
| 20260506060520 | 44 | 199 | 4.0 | 0.0 | 0.00 | 0.00 | 0.00 | 59 | 1004.5 |
| 20260506051052 | 41 | 197 | 3.0 | 0.0 | 0.00 | 0.00 | 0.00 | 68 | 1004.1 |
| 20260506050543 | 41 | 196 | 3.0 | 0.0 | 0.00 | 0.00 | 0.00 | 68 | 1004.1 |
| 20260506045021 | 39 | 189 | 1.0 | 0.0 | 0.00 | 0.00 | 0.00 | 71 | 1004.0 |
| 20260506044527 | 39 | 199 | 2.0 | 0.0 | 0.00 | 0.00 | 0.00 | 72 | 1004.0 |
| 20260506044041 | 38 | 182 | 2.0 | 0.0 | 0.00 | 0.00 | 0.00 | 72 | 1004.0 |
| 20260506043527 | 38 | 189 | 2.0 | 0.0 | 0.00 | 0.00 | 0.00 | 74 | 1004.0 |
| 20260506043044 | 37 | 223 | 2.0 | 0.0 | 0.00 | 0.00 | 0.00 | 75 | 1003.9 |
| 20260506042520 | 36 | 207 | 2.0 | 0.0 | 0.00 | 0.00 | 0.00 | 76 | 1003.9 |
| 20260506042036 | 36 | 196 | 2.0 | 0.0 | 0.00 | 0.00 | 0.00 | 76 | 1003.9 |
| 20260506041559 | 35 | 189 | 3.0 | 0.0 | 0.00 | 0.00 | 0.00 | 78 | 1003.9 |
| 20260506041023 | 35 | 204 | 3.0 | 0.0 | 0.00 | 0.00 | 0.00 | 77 | 1003.7 |
| 20260506040539 | 35 | 192 | 3.0 | 0.0 | 0.00 | 0.00 | 0.00 | 78 | 1003.7 |
| 20260506040022 | 35 | 193 | 3.0 | 0.0 | 0.00 | 0.00 | 0.00 | 78 | 1003.5 |
| 20260506035539 | 34 | 196 | 3.0 | 0.0 | 0.00 | 0.00 | 0.00 | 79 | 1003.5 |
| 20260506035042 | 34 | 203 | 2.0 | 0.0 | 0.00 | 0.00 | 0.00 | 80 | 1003.5 |
| 20260506034534 | 34 | 176 | 2.0 | 0.0 | 0.00 | 0.00 | 0.00 | 80 | 1003.5 |
| 20260506034043 | 33 | 182 | 2.0 | 0.0 | 0.00 | 0.00 | 0.00 | 81 | 1003.4 |
| 20260506033527 | 33 | 202 | 3.0 | 0.0 | 0.00 | 0.00 | 0.00 | 81 | 1003.4 |
| 20260506033024 | 33 | 207 | 2.0 | 0.0 | 0.00 | 0.00 | 0.00 | 82 | 1003.3 |
| 20260506032524 | 33 | 193 | 2.0 | 0.0 | 0.00 | 0.00 | 0.00 | 82 | 1003.3 |
| 20260506032041 | 32 | 202 | 2.0 | 0.0 | 0.00 | 0.00 | 0.00 | 83 | 1003.3 |
| 20260506031527 | 32 | 203 | 2.0 | 0.0 | 0.00 | 0.00 | 0.00 | 83 | 1003.0 |
| 20260506031033 | 32 | 199 | 2.0 | 0.0 | 0.00 | 0.00 | 0.00 | 84 | 1003.0 |
| 20260506030553 | 32 | 197 | 2.0 | 0.0 | 0.00 | 0.00 | 0.00 | 84 | 1003.0 |
| 20260506030038 | 31 | 200 | 2.0 | 0.0 | 0.00 | 0.00 | 0.00 | 84 | 1003.0 |
| 20260506025523 | 31 | 200 | 2.0 | 0.0 | 0.00 | 0.00 | 0.00 | 84 | 1003.0 |
| 20260506025041 | 31 | 200 | 2.0 | 0.0 | 0.00 | 0.00 | 0.00 | 85 | 1003.0 |
| 20260506024548 | 31 | 200 | 1.0 | 0.0 | 0.00 | 0.00 | 0.00 | 85 | 1002.9 |
| 20260506024020 | 31 | 200 | 1.0 | 0.0 | 0.00 | 0.00 | 0.00 | 85 | 1002.9 |
| 20260506023531 | 31 | 200 | 2.0 | 0.0 | 0.00 | 0.00 | 0.00 | 85 | 1002.9 |
| 20260506023026 | 31 | 200 | 2.0 | 0.0 | 0.00 | 0.00 | 0.00 | 85 | 1002.8 |
| 20260506022545 | 31 | 200 | 2.0 | 0.0 | 0.00 | 0.00 | 0.00 | 85 | 1002.8 |
| 20260506022032 | 31 | 200 | 2.0 | 0.0 | 0.00 | 0.00 | 0.00 | 85 | 1002.8 |
| 20260506021538 | 31 | 200 | 2.0 | 0.0 | 0.00 | 0.00 | 0.00 | 85 | 1002.8 |
| 20260506021030 | 31 | 200 | 2.0 | 0.0 | 0.00 | 0.00 | 0.00 | 85 | 1002.8 |
| 20260506020543 | 31 | 200 | 1.0 | 0.0 | 0.00 | 0.00 | 0.00 | 85 | 1002.8 |
| 20260506020055 | 31 | 200 | 1.0 | 0.0 | 0.00 | 0.00 | 0.00 | 84 | 1002.8 |
| 20260506015545 | 31 | 200 | 1.0 | 0.0 | 0.00 | 0.00 | 0.00 | 84 | 1002.6 |
| 20260506015029 | 31 | 200 | 1.0 | 0.0 | 0.00 | 0.00 | 0.00 | 84 | 1002.6 |
| 20260506014544 | 31 | 200 | 1.0 | 0.0 | 0.00 | 0.00 | 0.00 | 84 | 1002.6 |
| 20260506014027 | 31 | 200 | 1.0 | 0.0 | 0.00 | 0.00 | 0.00 | 84 | 1002.5 |
| 20260506013534 | 31 | 200 | 1.0 | 0.0 | 0.00 | 0.00 | 0.00 | 84 | 1002.5 |
| 20260506013021 | 31 | 200 | 1.0 | 0.0 | 0.00 | 0.00 | 0.00 | 84 | 1002.4 |
| 20260506012532 | 31 | 200 | 1.0 | 0.0 | 0.00 | 0.00 | 0.00 | 83 | 1002.4 |
| 20260506012035 | 31 | 200 | 1.0 | 0.0 | 0.00 | 0.00 | 0.00 | 83 | 1002.4 |
| 20260506011541 | 31 | 200 | 1.0 | 0.0 | 0.00 | 0.00 | 0.00 | 82 | 1002.4 |
| 20260506011035 | 31 | 200 | 1.0 | 0.0 | 0.00 | 0.00 | 0.00 | 82 | 1002.2 |
| 20260506010545 | 32 | 200 | 1.0 | 0.0 | 0.00 | 0.00 | 0.00 | 82 | 1002.3 |
| 20260506010025 | 32 | 200 | 1.0 | 0.0 | 0.00 | 0.00 | 0.00 | 81 | 1002.1 |
| 20260506005600 | 32 | 200 | 1.0 | 0.0 | 0.00 | 0.00 | 0.00 | 80 | 1002.1 |
| 20260506005026 | 32 | 200 | 1.0 | 0.0 | 0.00 | 0.00 | 0.00 | 80 | 1002.1 |
| 20260506004540 | 32 | 200 | 1.0 | 0.0 | 0.00 | 0.00 | 0.00 | 80 | 1002.1 |
| 20260506004044 | 32 | 200 | 1.0 | 0.0 | 0.00 | 0.00 | 0.00 | 79 | 1001.9 |
| 20260506003535 | 32 | 200 | 2.0 | 0.0 | 0.00 | 0.00 | 0.00 | 79 | 1001.9 |
| 20260506003039 | 33 | 200 | 2.0 | 0.0 | 0.00 | 0.00 | 0.00 | 77 | 1001.9 |
| 20260506002523 | 33 | 202 | 2.0 | 0.0 | 0.00 | 0.00 | 0.00 | 77 | 1001.9 |
| 20260506002034 | 33 | 202 | 2.0 | 0.0 | 0.00 | 0.00 | 0.00 | 76 | 1001.9 |
| 20260506001523 | 33 | 202 | 1.0 | 0.0 | 0.00 | 0.00 | 0.00 | 75 | 1001.7 |
| 20260506001028 | 33 | 202 | 2.0 | 0.0 | 0.00 | 0.00 | 0.00 | 75 | 1001.7 |
| 20260506000543 | 33 | 202 | 2.0 | 0.0 | 0.00 | 0.00 | 0.00 | 74 | 1001.7 |
| 20260506000051 | 34 | 202 | 2.0 | 0.0 | 0.00 | 0.00 | 0.00 | 75 | 1001.6 |
| 20260505235547 | 34 | 202 | 1.0 | 0.0 | 0.00 | 0.00 | 0.00 | 75 | 1001.6 |
| 20260505235027 | 34 | 185 | 1.0 | 0.0 | 0.00 | 0.00 | 0.00 | 75 | 1001.6 |
| 20260505234608 | 34 | 185 | 1.0 | 0.0 | 0.00 | 0.00 | 0.00 | 75 | 1001.6 |
| 20260505234047 | 34 | 185 | 1.0 | 0.0 | 0.00 | 0.00 | 0.00 | 75 | 1001.5 |
| 20260505233530 | 34 | 185 | 0.0 | 0.0 | 0.00 | 0.00 | 0.00 | 75 | 1001.5 |
| 20260505233023 | 34 | 185 | 0.0 | 0.0 | 0.00 | 0.00 | 0.00 | 74 | 1001.4 |
| 20260505232528 | 34 | 185 | 0.0 | 0.0 | 0.00 | 0.00 | 0.00 | 75 | 1001.4 |
| 20260505232037 | 34 | 185 | 0.0 | 0.0 | 0.00 | 0.00 | 0.00 | 75 | 1001.4 |
| 20260505231530 | 34 | 185 | 1.0 | 0.0 | 0.00 | 0.00 | 0.00 | 76 | 1001.4 |
| 20260505231035 | 34 | 185 | 1.0 | 0.0 | 0.00 | 0.00 | 0.00 | 77 | 1001.4 |
| 20260505230544 | 34 | 185 | 1.0 | 0.0 | 0.00 | 0.00 | 0.00 | 77 | 1001.4 |
| 20260505230040 | 34 | 185 | 2.0 | 0.0 | 0.00 | 0.00 | 0.00 | 77 | 1001.4 |
| 20260505225526 | 34 | 185 | 3.0 | 0.0 | 0.00 | 0.00 | 0.00 | 78 | 1001.5 |
| 20260505225043 | 34 | 190 | 3.0 | 0.0 | 0.00 | 0.00 | 0.00 | 78 | 1001.5 |
| 20260505224527 | 34 | 199 | 2.0 | 0.0 | 0.00 | 0.00 | 0.00 | 78 | 1001.4 |
| 20260505224031 | 34 | 199 | 2.0 | 0.0 | 0.00 | 0.00 | 0.00 | 77 | 1001.4 |
| 20260505223535 | 34 | 200 | 3.0 | 0.0 | 0.00 | 0.00 | 0.00 | 77 | 1001.4 |
| 20260505223051 | 35 | 224 | 3.0 | 0.0 | 0.00 | 0.00 | 0.00 | 77 | 1001.4 |
| 20260505222537 | 35 | 209 | 3.0 | 0.0 | 0.00 | 0.00 | 0.00 | 77 | 1001.4 |
| 20260505222032 | 35 | 197 | 3.0 | 0.0 | 0.00 | 0.00 | 0.00 | 76 | 1001.4 |
| 20260505221533 | 35 | 200 | 3.0 | 0.0 | 0.00 | 0.00 | 0.00 | 76 | 1001.4 |
| 20260505221020 | 35 | 202 | 2.0 | 0.0 | 0.00 | 0.00 | 0.00 | 76 | 1001.3 |
| 20260505220534 | 35 | 197 | 3.0 | 0.0 | 0.00 | 0.00 | 0.00 | 76 | 1001.3 |
| 20260505220040 | 35 | 161 | 3.0 | 0.0 | 0.00 | 0.00 | 0.00 | 75 | 1001.3 |
| 20260505215544 | 35 | 182 | 3.0 | 0.0 | 0.00 | 0.00 | 0.00 | 75 | 1001.1 |
| 20260505215039 | 35 | 197 | 2.0 | 0.0 | 0.00 | 0.00 | 0.00 | 75 | 1001.1 |
| 20260505214523 | 35 | 182 | 3.0 | 0.0 | 0.00 | 0.00 | 0.00 | 74 | 1001.0 |
| 20260505214030 | 35 | 182 | 3.0 | 0.0 | 0.00 | 0.00 | 0.00 | 74 | 1001.0 |
| 20260505213542 | 35 | 187 | 2.0 | 0.0 | 0.00 | 0.00 | 0.00 | 74 | 1001.0 |
| 20260505213026 | 36 | 187 | 2.0 | 0.0 | 0.00 | 0.00 | 0.00 | 74 | 1001.0 |
| 20260505212532 | 36 | 192 | 3.0 | 0.0 | 0.00 | 0.00 | 0.00 | 73 | 1001.0 |
| 20260505212027 | 36 | 226 | 2.0 | 0.0 | 0.00 | 0.00 | 0.00 | 73 | 1001.0 |
| 20260505211536 | 36 | 190 | 2.0 | 0.0 | 0.00 | 0.00 | 0.00 | 72 | 1001.0 |
| 20260505211054 | 36 | 190 | 2.0 | 0.0 | 0.00 | 0.00 | 0.00 | 72 | 1000.9 |
| 20260505210521 | 36 | 214 | 3.0 | 0.0 | 0.00 | 0.00 | 0.00 | 72 | 1000.9 |
| 20260505210035 | 36 | 211 | 3.0 | 0.0 | 0.00 | 0.00 | 0.00 | 72 | 1000.8 |
| 20260505205523 | 36 | 186 | 3.0 | 0.0 | 0.00 | 0.00 | 0.00 | 72 | 1000.8 |
| 20260505205030 | 36 | 138 | 3.0 | 0.0 | 0.00 | 0.00 | 0.00 | 71 | 1000.8 |
| 20260505204538 | 36 | 178 | 2.0 | 0.0 | 0.00 | 0.00 | 0.00 | 70 | 1000.9 |
| 20260505204021 | 36 | 192 | 2.0 | 0.0 | 0.00 | 0.00 | 0.00 | 70 | 1000.8 |
| 20260505203529 | 36 | 190 | 3.0 | 0.0 | 0.00 | 0.00 | 0.00 | 70 | 1000.8 |
| 20260505203048 | 37 | 169 | 3.0 | 0.0 | 0.00 | 0.00 | 0.00 | 69 | 1000.8 |
| 20260505202532 | 37 | 152 | 3.0 | 0.0 | 0.00 | 0.00 | 0.00 | 69 | 1000.8 |
| 20260505202039 | 37 | 189 | 3.0 | 0.0 | 0.00 | 0.00 | 0.00 | 68 | 1000.8 |
| 20260505201556 | 37 | 194 | 3.0 | 0.0 | 0.00 | 0.00 | 0.00 | 67 | 1000.8 |
| 20260505201019 | 37 | 194 | 3.0 | 0.0 | 0.00 | 0.00 | 0.00 | 67 | 1000.7 |
| 20260505200547 | 37 | 194 | 3.0 | 0.0 | 0.00 | 0.00 | 0.00 | 67 | 1000.7 |
| 20260505200022 | 37 | 247 | 3.0 | 0.0 | 0.00 | 0.00 | 0.00 | 66 | 1000.7 |
| 20260505195523 | 37 | 183 | 3.0 | 0.0 | 0.00 | 0.00 | 0.00 | 65 | 1000.7 |
| 20260505195039 | 37 | 185 | 2.0 | 0.0 | 0.00 | 0.00 | 0.00 | 64 | 1000.7 |
| 20260505194550 | 38 | 186 | 2.0 | 0.0 | 0.00 | 0.00 | 0.00 | 63 | 1000.6 |
| 20260505194020 | 38 | 186 | 1.0 | 0.0 | 0.00 | 0.00 | 0.00 | 62 | 1000.6 |
| 20260505193536 | 38 | 186 | 1.0 | 0.0 | 0.00 | 0.00 | 0.00 | 62 | 1000.6 |
| 20260505193032 | 38 | 186 | 1.0 | 0.0 | 0.00 | 0.00 | 0.00 | 61 | 1000.6 |
| 20260505192521 | 39 | 186 | 1.0 | 0.0 | 0.00 | 0.00 | 0.00 | 61 | 1000.6 |
| 20260505192032 | 39 | 186 | 1.0 | 0.0 | 0.00 | 0.00 | 0.00 | 60 | 1000.6 |
| 20260505191531 | 39 | 186 | 1.0 | 0.0 | 0.00 | 0.00 | 0.00 | 59 | 1000.5 |
| 20260505191035 | 40 | 186 | 1.0 | 0.0 | 0.00 | 0.00 | 0.00 | 58 | 1000.5 |
| 20260505190524 | 40 | 186 | 1.0 | 0.0 | 0.00 | 0.00 | 0.00 | 58 | 1000.5 |
| 20260505190037 | 40 | 186 | 1.0 | 0.0 | 0.00 | 0.00 | 0.00 | 57 | 1000.5 |
| 20260505185521 | 41 | 186 | 2.0 | 0.0 | 0.00 | 0.00 | 0.00 | 56 | 1000.4 |
| 20260505185036 | 41 | 186 | 2.0 | 0.0 | 0.00 | 0.00 | 0.00 | 55 | 1000.4 |
| 20260505184544 | 42 | 187 | 1.0 | 0.0 | 0.00 | 0.00 | 0.00 | 55 | 1000.3 |
| 20260505184100 | 42 | 187 | 1.0 | 0.0 | 0.00 | 0.00 | 0.00 | 54 | 1000.3 |
| 20260505183527 | 42 | 187 | 2.0 | 0.0 | 0.00 | 0.00 | 0.00 | 53 | 1000.3 |
| 20260505183021 | 42 | 193 | 2.0 | 0.0 | 0.00 | 0.00 | 0.00 | 51 | 1000.3 |
| 20260505182529 | 43 | 197 | 2.0 | 0.0 | 0.00 | 0.00 | 0.00 | 51 | 1000.3 |
| 20260505182023 | 43 | 192 | 2.0 | 0.0 | 0.00 | 0.00 | 0.00 | 51 | 1000.3 |
| 20260505181527 | 43 | 209 | 2.0 | 0.0 | 0.00 | 0.00 | 0.00 | 50 | 1000.1 |
| 20260505181105 | 43 | 206 | 2.0 | 0.0 | 0.00 | 0.00 | 0.00 | 50 | 1000.1 |
| 20260505180552 | 44 | 206 | 2.0 | 0.0 | 0.00 | 0.00 | 0.00 | 49 | 1000.2 |
| 20260505180027 | 44 | 178 | 2.0 | 0.0 | 0.00 | 0.00 | 0.00 | 49 | 1000.0 |